TimeEST,TemperatureF,Dew PointF,Humidity,Sea Level PressureIn,VisibilityMPH,Wind Direction,Wind SpeedMPH,Gust SpeedMPH,PrecipitationIn,Events,Conditions,WindDirDegrees,DateUTC
12:53 AM,73.0,63.0,71,30.08,10.0,ESE,4.6,-,N/A,,Clear,110,2012-12-20 05:53:00
1:53 AM,69.1,62.1,78,30.07,10.0,East,3.5,-,N/A,,Partly Cloudy,90,2012-12-20 06:53:00
2:53 AM,70.0,63.0,78,30.07,10.0,East,3.5,-,N/A,,Clear,90,2012-12-20 07:53:00
3:53 AM,70.0,63.0,78,30.07,10.0,Calm,Calm,-,N/A,,Scattered Clouds,0,2012-12-20 08:53:00
4:53 AM,66.9,63.0,87,30.06,10.0,Calm,Calm,-,N/A,,Scattered Clouds,0,2012-12-20 09:53:00
5:53 AM,71.1,64.0,78,30.06,10.0,East,5.8,-,N/A,,Partly Cloudy,100,2012-12-20 10:53:00
6:53 AM,70.0,64.0,81,30.09,10.0,East,3.5,-,N/A,,Scattered Clouds,90,2012-12-20 11:53:00
7:53 AM,71.1,64.9,81,30.09,10.0,ESE,3.5,-,N/A,,Partly Cloudy,110,2012-12-20 12:53:00
8:53 AM,75.9,64.0,67,30.09,10.0,SE,5.8,-,N/A,,Partly Cloudy,130,2012-12-20 13:53:00
9:53 AM,79.0,61.0,54,30.10,10.0,SE,12.7,-,N/A,,Scattered Clouds,130,2012-12-20 14:53:00
10:53 AM,80.1,61.0,52,30.10,10.0,SSE,11.5,16.1,N/A,,Scattered Clouds,150,2012-12-20 15:53:00
11:53 AM,81.0,57.0,44,30.09,10.0,ESE,10.4,-,N/A,,Scattered Clouds,110,2012-12-20 16:53:00
12:53 PM,80.1,61.0,52,30.06,10.0,SSE,9.2,17.3,N/A,,Clear,160,2012-12-20 17:53:00
1:53 PM,79.0,64.0,60,30.03,10.0,SSE,9.2,-,N/A,,Mostly Cloudy,150,2012-12-20 18:53:00
2:53 PM,79.0,64.9,62,30.01,10.0,SSE,9.2,-,N/A,,Mostly Cloudy,160,2012-12-20 19:53:00
3:53 PM,78.1,64.9,64,30.00,10.0,SSE,11.5,17.3,N/A,,Mostly Cloudy,160,2012-12-20 20:53:00
4:53 PM,77.0,66.0,69,30.00,10.0,SSE,10.4,-,N/A,,Scattered Clouds,150,2012-12-20 21:53:00
5:53 PM,75.0,64.9,71,30.01,10.0,South,6.9,-,N/A,,Scattered Clouds,170,2012-12-20 22:53:00
6:53 PM,75.0,64.9,71,30.04,10.0,South,4.6,-,N/A,,Scattered Clouds,180,2012-12-20 23:53:00
7:53 PM,73.0,66.0,79,30.02,10.0,SSE,6.9,-,N/A,,Scattered Clouds,160,2012-12-21 00:53:00
8:53 PM,72.0,66.0,81,30.04,10.0,SW,3.5,-,N/A,,Clear,230,2012-12-21 01:53:00
9:53 PM,72.0,64.9,78,30.04,10.0,South,3.5,-,N/A,,Clear,180,2012-12-21 02:53:00
10:53 PM,72.0,66.0,81,30.04,10.0,South,3.5,-,N/A,,Clear,190,2012-12-21 03:53:00
11:53 PM,71.1,66.0,84,30.04,10.0,SW,3.5,-,N/A,,Clear,230,2012-12-21 04:53:00